Weather History for KMTH - August, 2013

Change the Weather History Date:

Thursday, August 15, 2013

  Actual Average Record
Temperature  
Mean Temperature 85 °F 86 °F  
Max Temperature 91 °F 91 °F 95 °F (2011)
Min Temperature 78 °F 80 °F 73 °F (2005)
Degree Days  
Heating Degree Days 0 0  
Month to date heating degree days 0 0  
Since 1 June heating degree days 0 0  
Since 1 July heating degree days 0 0  
Cooling Degree Days 20 20  
Month to date cooling degree days 329 312  
Year to date cooling degree days 3399 3069  
Since 1 June cooling degree days 1569 1526  
Growing Degree Days 35 (Base 50)    
Moisture  
Dew Point 74 °F    
Average Humidity 75    
Maximum Humidity 91    
Minimum Humidity 59    
Precipitation  
Precipitation 0.02 in 0.21 in 0.50 in (2014)
Month to date precipitation 0.52 3.08  
Year to date precipitation 37.57 24.91  
Snow  
Snow 0.00 in - - ()
Month to date snowfall 0.0  
Since 1 June snowfall 0.0  
Since 1 July snowfall 0.0  
Snow Depth 0.00 in    
Sea Level Pressure  
Sea Level Pressure 30.00 in    
Wind  
Wind Speed 5 mph (ESE)    
Max Wind Speed 13 mph    
Max Gust Speed 22 mph    
Visibility 10 miles    
Events Thunderstorm    
T = Trace of Precipitation, MM = Missing Value Source: NWS Daily Summary

Daily Weather History Graph

Daily Weather History Graph

Search for Another Location

Airport or City:

Trip Planner

Search our weather history database for the weather conditions in past years. The results will help you decide how hot, cold, wet, or windy it might be!

Date:

Astronomy

Aug. 15, 2013 Rise Set
Actual Time 6:58 AM EDT 7:58 PM EDT
Civil Twilight 6:34 AM EDT 8:21 PM EDT
Nautical Twilight 6:06 AM EDT 8:50 PM EDT
Astronomical Twilight 5:37 AM EDT 9:18 PM EDT
Moon 3:02 PM EDT (8/15) 1:15 AM EDT (8/15)
Length of Visible Light 13h 47m
Length of Day
12h 59m
Waxing Gibbous, 64% of the Moon is Illuminated
Aug 15
Waxing Gibbous
Aug 20
Full
Aug 28
Last Quarter
Sep 5
New
Sep 12
First Quarter

Hourly Weather History & Observations

Time (EDT) Temp. Heat Index Dew Point Humidity Pressure Visibility Wind Dir Wind Speed Gust Speed Precip Events Conditions
12:53 AM 84.0 °F 91.9 °F 75.0 °F 74% 30.00 in 10.0 mi SSE 6.9 mph - N/A   Partly Cloudy
1:53 AM 84.0 °F 89.0 °F 71.1 °F 65% 29.99 in 10.0 mi ESE 5.8 mph 17.3 mph N/A   Scattered Clouds
2:49 AM 84.2 °F 92.3 °F 75.2 °F 74% 29.99 in 10.0 mi SW 11.5 mph 21.9 mph 0.01 in Thunderstorm Scattered Clouds
2:53 AM 81.0 °F 86.2 °F 73.9 °F 79% 29.99 in 10.0 mi WSW 11.5 mph 21.9 mph 0.01 in Thunderstorm Mostly Cloudy
3:05 AM 80.6 °F 85.4 °F 73.4 °F 79% 29.99 in 10.0 mi West 10.4 mph 17.3 mph N/A   Mostly Cloudy
3:16 AM 80.6 °F 85.4 °F 73.4 °F 79% 29.98 in 10.0 mi West 8.1 mph 16.1 mph N/A Thunderstorm Mostly Cloudy
3:25 AM 80.6 °F 84.6 °F 71.6 °F 74% 29.97 in 10.0 mi West 4.6 mph - N/A   Scattered Clouds
3:53 AM 80.1 °F 84.2 °F 73.0 °F 79% 29.97 in 10.0 mi WNW 6.9 mph - N/A   Clear
4:53 AM 79.0 °F - 73.9 °F 84% 29.97 in 10.0 mi NW 3.5 mph - 0.01 in   Partly Cloudy
5:53 AM 79.0 °F - 73.9 °F 84% 29.98 in 10.0 mi Calm Calm - N/A   Clear
6:53 AM 79.0 °F - 75.0 °F 88% 29.99 in 10.0 mi Calm Calm - N/A   Clear
7:53 AM 79.0 °F - 75.0 °F 88% 30.00 in 10.0 mi East 4.6 mph - N/A   Scattered Clouds
8:53 AM 82.9 °F 89.4 °F 73.9 °F 74% 30.00 in 10.0 mi ENE 6.9 mph - N/A   Clear
9:53 AM 84.0 °F 91.9 °F 75.0 °F 74% 30.01 in 10.0 mi East 5.8 mph - N/A   Clear
10:53 AM 86.0 °F 93.8 °F 73.9 °F 67% 30.01 in 10.0 mi East 4.6 mph - N/A   Clear
11:53 AM 87.1 °F 97.3 °F 75.9 °F 69% 30.03 in 10.0 mi Variable 5.8 mph - N/A   Clear
12:53 PM 88.0 °F 96.5 °F 73.9 °F 63% 30.02 in 10.0 mi ESE 5.8 mph - N/A   Clear
1:53 PM 90.0 °F 101.3 °F 75.9 °F 63% 30.01 in 10.0 mi ESE 5.8 mph - N/A   Partly Cloudy
2:53 PM 91.0 °F 101.6 °F 75.0 °F 59% 29.99 in 10.0 mi Variable 6.9 mph - N/A   Partly Cloudy
3:53 PM 90.0 °F 100.2 °F 75.0 °F 61% 29.99 in 10.0 mi ESE 6.9 mph - N/A   Partly Cloudy
4:53 PM 90.0 °F 101.3 °F 75.9 °F 63% 29.98 in 10.0 mi Variable 4.6 mph - N/A   Partly Cloudy
5:53 PM 89.1 °F 98.0 °F 73.9 °F 61% 29.98 in 10.0 mi ESE 4.6 mph - N/A   Clear
6:53 PM 87.1 °F 96.3 °F 75.0 °F 67% 29.97 in 10.0 mi East 5.8 mph - N/A   Clear
7:53 PM 86.0 °F 95.1 °F 75.0 °F 70% 30.00 in 10.0 mi East 5.8 mph - N/A   Clear
8:53 PM 86.0 °F 95.1 °F 75.0 °F 70% 30.04 in 10.0 mi East 6.9 mph - N/A   Clear
9:53 PM 86.0 °F 95.1 °F 75.0 °F 70% 30.06 in 10.0 mi ESE 4.6 mph - N/A   Clear
10:53 PM 84.9 °F 94.1 °F 75.9 °F 74% 30.05 in 10.0 mi ESE 4.6 mph - N/A   Clear
11:53 PM 84.9 °F 94.1 °F 75.9 °F 74% 30.04 in 10.0 mi ESE 3.5 mph - N/A   Clear